Location: Nelson
(41.2830°S, 173.2830°E)
Time: 23:36:17
(UTC+12:00)

ISS - Visible Passes

Search period start: 14 May 2021 00:00
Search period end: 24 May 2021 00:00
Orbit: 417 x 422 km, 51.6° (Epoch: 14 May)

Date Brightness Start Highest point End Pass type
(mag) Time Alt. Az. Time Alt. Az. Time Alt. Az.
19 May 0.0 06:28:33 10° NE 06:29:16 10° NE 06:29:59 10° ENE visible
21 May -1.7 06:27:43 10° NNW 06:30:46 30° NE 06:33:50 10° ESE visible
22 May -0.9 05:41:02 10° N 05:43:26 18° NE 05:45:53 10° E visible
23 May -0.5 04:55:41 10° NE 04:56:11 11° NE 04:56:58 10° ENE visible
23 May -3.7 06:29:03 10° NW 06:32:28 89° NE 06:35:57 10° SE visible
